Regional Weather Roundup
Issued by NWS

Home | Current Version | Previous Version | Graphics & Text | Print | Product List | Glossary On
Versions: 1 2 3 4 5 6 7 8 9 10 11 12 13 14 15 16 17 18 19 20 21 22 23 24 25 26 27 28 29 30 31 32 33 34 35 36 37 38 39 40 41 42 43 44 45 46 47 48 49 50
000
ASUS43 KMKX 261159
RWRWI

WISCONSIN REGIONAL WEATHER ROUNDUP
NATIONAL WEATHER SERVICE MILWAUKEE/SULLIVAN WI
600 AM CST MON JAN 26 2015

NOTE: "FAIR" INDICATES FEW OR NO CLOUDS BELOW 12,000 FEET WITH NO
SIGNIFICANT WEATHER AND/OR OBSTRUCTIONS TO VISIBILITY.

WIZ001-002-006>008-014>016-023>028-261300-
NORTHWEST WISCONSIN

CITY           SKY/WX    TMP DP  RH WIND       PRES   REMARKS
SUPERIOR ARPT  MIX PCPN  22  19  90 SW5       29.72F WCI  16
ASHLAND        LGT SNOW  19  15  84 VRB7      29.74F FOG     WCI  10
6HR MIN TEMP:  13; 6HR MAX TEMP:  20; 6HR PCP: TRACE;

HAYWARD        CLOUDY    18  13  80 S7        29.73F HAZE    WCI   9
6HR MIN TEMP:  16; 6HR MAX TEMP:  19; 6HR PCP:  0.02;

SIREN          LGT SNOW  21  19  92 S12       29.72F WCI   9
CUMBERLAND     LGT SNOW  19  18  93 SE9       29.75F VSB 3/4 WCI   9
RICE LAKE      LGT SNOW  20  17  90 SE9       29.79F WCI   9
CHETEK         LGT SNOW  19  17  90 SE6       29.80F WCI  11
LADYSMITH      LGT SNOW  18  14  84 SE7       29.81F WCI   9
EAU CLAIRE     LGT SNOW  20  17  88 S8        29.81F VSB 3/4 WCI  10
MENOMONIE      LGT SNOW  22  20  91 SE8       29.81F WCI  13
NEW RICHMOND   LGT SNOW  23  22  97 S9        29.76F WCI  13
OSCEOLA        FLURRIES  24  23  99 SE9       29.78F WCI  14
$$

WIZ003>005-009-010-017-018-261300-
NORTH CENTRAL WISCONSIN

CITY           SKY/WX    TMP DP  RH WIND       PRES   REMARKS
MANITOWISH WTR CLOUDY    12   8  83 S8        29.79F WCI   0
ARBOR VITAE    FLURRIES  15  10  78 S12       29.80F WCI   2
WOODRUFF       FLURRIES  15  10  78 S12       29.80F WCI   2
RHINELANDER    CLOUDY    14   5  67 S10       29.82F WCI   1
6HR MIN TEMP:  10; 6HR MAX TEMP:  14; 6HR PCP: TRACE;

EAGLE RIVER    LGT SNOW  12   6  76 S8        29.82S WCI   0
LAND O LAKES   LGT SNOW  13   8  80 S6        29.81F WCI   3
PHILLIPS       CLOUDY    15   8  72 S9        29.79F WCI   3
TOMAHAWK       CLOUDY    13   6  73 CALM      29.84F
MEDFORD        CLOUDY    14   8  77 S8        29.82F WCI   3
MERRILL        CLOUDY    14   6  70 S5        29.86F WCI   7
$$

WIZ029-030-035-036-043>047-261300-
CENTRAL WISCONSIN

CITY           SKY/WX    TMP DP  RH WIND       PRES   REMARKS
WAUSAU         CLOUDY    14   6  70 SE7       29.86F WCI   4
6HR MIN TEMP:   9; 6HR MAX TEMP:  14;

MOSINEE        CLOUDY    12   9  85 CALM      29.89F
MARSHFIELD     CLOUDY    16   9  74 S9        29.85F WCI   4
6HR MIN TEMP:  10; 6HR MAX TEMP:  16;

STEVENS POINT  CLOUDY    12   7  81 CALM      29.91F
WAUPACA        CLOUDY    15  10  79 CALM      29.94F
WAUTOMA        NOT AVBL
WISC RAPIDS    CLOUDY    15   7  70 S7        29.90F WCI   5
6HR MIN TEMP:   8; 6HR MAX TEMP:  15;

CAMP DOUGLAS   CLOUDY    18  14  86 S10       29.89F WCI   6
$$

WIZ011>013-019>022-031-037>040-048>050-261300-
NORTHEAST WISCONSIN

CITY           SKY/WX    TMP DP  RH WIND       PRES   REMARKS
ANTIGO         CLOUDY    12   4  71 S6        29.86F WCI   3
SHAWANO        MOCLDY    14   9  82 CALM      29.94F
OCONTO         CLOUDY    11   9  90 CALM      29.95F
STURGEON BAY   MOCLDY    10   7  85 CALM      29.96F
6HR MIN TEMP:   9; 6HR MAX TEMP:  10;

GREEN BAY      CLOUDY    14  10  84 CALM      29.95F
6HR MIN TEMP:  11; 6HR MAX TEMP:  14;

MANITOWOC      NOT AVBL
APPLETON       CLOUDY    14   9  79 VRB3      29.94F
CLINTONVILLE   CLOUDY    12   9  85 CALM      29.94S
OSHKOSH        CLOUDY    15   8  73 CALM      29.94F
6HR MIN TEMP:  11; 6HR MAX TEMP:  15;

$$

WIZ032>034-041-042-053>061-261300-
SOUTHWEST WISCONSIN

CITY           SKY/WX    TMP DP  RH WIND       PRES   REMARKS
LA CROSSE      FLURRIES  23  15  71 S10       29.87F WCI  12
6HR MIN TEMP:  20; 6HR MAX TEMP:  23; 6HR PCP: TRACE;

SPARTA         CLOUDY    20  12  71 S6        29.89F WCI  13
VIROQUA        CLOUDY    19  14  80 S9        29.86F WCI   8
BOSCOBEL       CLOUDY    21  12  68 S6        29.93F WCI  13
6HR MIN TEMP:  13; 6HR MAX TEMP:  21;

PRAIRIE DU CHI CLOUDY    21  13  68 SE3       29.94F
PLATTEVILLE    CLOUDY    18  14  84 SE6       29.93S WCI  10
$$

WIZ056-057-062-063-064-067-068-261300-
SOUTH CENTRAL WISCONSIN

CITY           SKY/WX    TMP DP  RH WIND       PRES   REMARKS
REEDSBURG      CLOUDY    16  12  84 CALM      29.92F
BARABOO/DELLS  CLOUDY    15  11  83 CALM      29.92F
LONE ROCK      CLOUDY    17  12  80 E5        29.95S WCI  10
MINERAL POINT  CLOUDY    18  14  86 S6        29.92S WCI   9
MADISON        MOCLDY    16  11  80 CALM      29.94F
6HR MIN TEMP:  10; 6HR MAX TEMP:  16;

MIDDLETON      MOCLDY    17  12  80 CALM      29.94F
WATERTOWN      CLOUDY    13  10  89 CALM      29.94F
MONROE         MOCLDY    18  12  79 CALM      29.92F
JANESVILLE     NOT AVBL
$$

WIZ051-052-058>065-066-070>072-261300-
SOUTHEAST WISCONSIN

CITY           SKY/WX    TMP DP  RH WIND       PRES   REMARKS
MILWAUKEE      CLOUDY    18  11  74 CALM      29.95S
6HR MIN TEMP:  17; 6HR MAX TEMP:  23;

WAUKESHA       PTCLDY    10   9  92 CALM      29.95F
MILWAUKEE/TIMM CLOUDY    14  10  85 CALM      29.96S
RACINE         MOCLDY    17  12  80 CALM      29.97F
6HR MIN TEMP:  17; 6HR MAX TEMP:  24;

BURLINGTON     MOCLDY    10   8  92 CALM      29.96R
KENOSHA        MOCLDY    15  12  88 W5        29.95F WCI   8
6HR MIN TEMP:  14; 6HR MAX TEMP:  20;

FOND DU LAC    MOCLDY    13   8  81 CALM      29.94F
6HR MIN TEMP:  10; 6HR MAX TEMP:  15; 6HR PCP: TRACE;

SHEBOYGAN      MOCLDY    13   9  84 CALM      29.95S
6HR MIN TEMP:  10; 6HR MAX TEMP:  14;

WEST BEND      MOCLDY    14  10  85 CALM      29.94F
JUNEAU         MOCLDY    12   9  85 CALM      29.95S
$$

LSZ147-162-261300-
LAKE SUPERIOR

STATION/POSITION TIME  TEMP    WIND        PRES    WAVE
                       AIR SEA DIR/SP/G            HT/PER
                 (UTC) (F)     (DEG/KT/KT) (MB)    (FT/S)
DEVILS ISLAND    1100   20     180/ 10/ 15 1009.5F
PORT WING        1100   21     170/  9/ 17 1007.5F
SAXON HARBOR     1100   20     190/  6/ 12 1009.8F
$$

LMZ867-665-643>646-261300-
LAKE MICHIGAN

STATION/POSITION TIME  TEMP    WIND        PRES    WAVE
                       AIR SEA DIR/SP/G            HT/PER
                 (UTC) (F)     (DEG/KT/KT) (MB)    (FT/S)
NORTHPORT PIER   1115   14     310/  1/  2 1014.9F
SISTER BAY       1113   11        CALM       N/A
KEWAUNEE LAKESHO 1100   12     300/  3/  6 1014.0
SHEBOYGAN LAKESH 1100   20     260/  3/  3 1015.9F
PORT WASHINGTON  1140   17        CALM     1015.6S
MILWAUKEE LAKESH 1100   19     300/  3/  3   N/A
KENOSHA   LAKESH 1100   19     280/  5/  6 1014.9F
$$

TC  - TEMPERATURE IN CELSIUS
VSB - VISIBILITY IN STATUTE MILES
WCI - WIND CHILL INDEX
HX  - HEAT INDEX



USA.gov is the U.S. government's official web portal to all federal, state and local government web resources and services.